When you browse on this site, cookies collect data to enhance your experience and personalize the content and advertising you see.
Visit our Privacy Policy to learn more. By continuing to use the site, you agree to this use of cookies and data.
  • In Deutschland
  • Länderverzeichnis
  • Für 7 Tage
  • Wassertemperatur
  • Satellitenkarten
  • Wetterkarte
  • Widgets
  • user-avatar
    Anmelden

    Stündliche Wetter Melbourne

    Heute, 23 Juli, Dienstag

    Zeit Temperatur Niederschläge Wind Luftdruck Luftfeuchtigkeit
    00:00 +11°C° 0 mm 8 m/S 755 mmHg 53%
    01:00 +11°C° 0 mm 7 m/S 755 mmHg 53%
    02:00 +10°C° 0.2 mm 7 m/S 754 mmHg 57%
    03:00 +10°C° 0.2 mm 7 m/S 754 mmHg 61%
    04:00 +10°C° 0 mm 7 m/S 754 mmHg 64%
    05:00 +9°C° 0.3 mm 7 m/S 754 mmHg 68%
    06:00 +9°C° 0.3 mm 6 m/S 755 mmHg 73%
    07:00 +9°C° 0.3 mm 6 m/S 755 mmHg 77%
    08:00 +9°C° 0.2 mm 6 m/S 756 mmHg 75%
    09:00 +10°C° 0.2 mm 6 m/S 756 mmHg 72%
    10:00 +10°C° 0.2 mm 7 m/S 756 mmHg 69%
    11:00 +11°C° 0.2 mm 7 m/S 756 mmHg 65%
    12:00 +13°C° 0.2 mm 6 m/S 756 mmHg 61%
    13:00 +13°C° 0.2 mm 6 m/S 756 mmHg 57%
    14:00 +13°C° 0 mm 6 m/S 756 mmHg 58%
    15:00 +13°C° 0 mm 6 m/S 755 mmHg 58%
    16:00 +13°C° 0 mm 6 m/S 755 mmHg 59%
    17:00 +11°C° 0.4 mm 6 m/S 755 mmHg 64%
    18:00 +11°C° 0.4 mm 7 m/S 755 mmHg 69%
    19:00 +10°C° 0.4 mm 7 m/S 755 mmHg 74%
    20:00 +10°C° 1.6 mm 7 m/S 756 mmHg 76%
    21:00 +9°C° 1.6 mm 7 m/S 757 mmHg 78%
    22:00 +9°C° 1.6 mm 7 m/S 758 mmHg 80%
    23:00 +8°C° 0 mm 6 m/S 758 mmHg 78%

    Morgen, 24 Juli, Mittwoch

    Zeit Temperatur Niederschläge Wind Luftdruck Luftfeuchtigkeit
    00:00 +7°C° 0 mm 5 m/S 759 mmHg 76%
    01:00 +6°C° 0 mm 5 m/S 760 mmHg 74%
    02:00 +6°C° 0 mm 4 m/S 760 mmHg 75%
    03:00 +5°C° 0 mm 4 m/S 761 mmHg 76%
    04:00 +5°C° 0 mm 4 m/S 761 mmHg 78%
    05:00 +5°C° 0 mm 3 m/S 762 mmHg 78%
    06:00 +5°C° 0 mm 3 m/S 763 mmHg 78%
    07:00 +5°C° 0 mm 3 m/S 763 mmHg 79%
    08:00 +7°C° 0 mm 3 m/S 764 mmHg 76%
    09:00 +8°C° 0 mm 3 m/S 764 mmHg 72%
    10:00 +9°C° 0 mm 3 m/S 765 mmHg 69%
    11:00 +11°C° 0 mm 3 m/S 765 mmHg 65%
    12:00 +12°C° 0 mm 3 m/S 764 mmHg 61%
    13:00 +14°C° 0 mm 3 m/S 764 mmHg 57%
    14:00 +13°C° 0 mm 3 m/S 764 mmHg 60%
    15:00 +13°C° 0 mm 3 m/S 764 mmHg 63%
    16:00 +14°C° 0 mm 2 m/S 764 mmHg 66%
    17:00 +12°C° 0 mm 3 m/S 765 mmHg 69%
    18:00 +11°C° 0 mm 3 m/S 765 mmHg 72%
    19:00 +11°C° 0 mm 3 m/S 766 mmHg 75%
    20:00 +10°C° 0 mm 3 m/S 766 mmHg 78%
    21:00 +10°C° 0 mm 3 m/S 766 mmHg 80%
    22:00 +9°C° 0 mm 3 m/S 767 mmHg 83%
    23:00 +8°C° 0 mm 4 m/S 767 mmHg 83%

    übermorgen, 25 Juli, Donnerstag

    Zeit Temperatur Niederschläge Wind Luftdruck Luftfeuchtigkeit
    00:00 +8°C° 0 mm 4 m/S 766 mmHg 83%
    01:00 +8°C° 0 mm 4 m/S 766 mmHg 83%
    02:00 +8°C° 0 mm 4 m/S 766 mmHg 84%
    03:00 +7°C° 0 mm 4 m/S 766 mmHg 84%
    04:00 +7°C° 0 mm 4 m/S 766 mmHg 85%
    05:00 +7°C° 0 mm 4 m/S 766 mmHg 85%
    06:00 +7°C° 0 mm 4 m/S 767 mmHg 85%
    07:00 +7°C° 0 mm 4 m/S 767 mmHg 85%
    08:00 +8°C° 0 mm 4 m/S 767 mmHg 81%
    09:00 +10°C° 0 mm 4 m/S 767 mmHg 76%
    10:00 +11°C° 0 mm 4 m/S 767 mmHg 72%
    11:00 +12°C° 0 mm 4 m/S 766 mmHg 68%
    12:00 +13°C° 0 mm 4 m/S 766 mmHg 64%
    13:00 +14°C° 0 mm 5 m/S 765 mmHg 59%
    14:00 +14°C° 0 mm 4 m/S 765 mmHg 61%
    15:00 +13°C° 0 mm 4 m/S 765 mmHg 63%
    16:00 +13°C° 0 mm 4 m/S 765 mmHg 65%
    17:00 +12°C° 0 mm 4 m/S 765 mmHg 68%
    18:00 +11°C° 0 mm 4 m/S 765 mmHg 70%
    19:00 +11°C° 0 mm 4 m/S 765 mmHg 73%
    20:00 +11°C° 0 mm 4 m/S 765 mmHg 72%
    21:00 +11°C° 0 mm 4 m/S 765 mmHg 70%
    22:00 +10°C° 0 mm 5 m/S 765 mmHg 69%
    23:00 +10°C° 0 mm 5 m/S 764 mmHg 68%

    26 Juli, Freitag

    Zeit Temperatur Niederschläge Wind Luftdruck Luftfeuchtigkeit
    00:00 +10°C° 0 mm 5 m/S 764 mmHg 68%
    01:00 +10°C° 0 mm 6 m/S 763 mmHg 67%
    02:00 +10°C° 0 mm 6 m/S 763 mmHg 67%
    03:00 +10°C° 0 mm 6 m/S 762 mmHg 68%
    04:00 +10°C° 0 mm 6 m/S 762 mmHg 68%
    05:00 +10°C° 0 mm 6 m/S 762 mmHg 70%
    06:00 +9°C° 0 mm 6 m/S 762 mmHg 71%
    07:00 +9°C° 0 mm 5 m/S 762 mmHg 73%
    08:00 +10°C° 0.2 mm 5 m/S 762 mmHg 73%
    09:00 +10°C° 0.2 mm 5 m/S 763 mmHg 73%
    10:00 +10°C° 0.2 mm 5 m/S 763 mmHg 73%
    11:00 +11°C° 0.8 mm 4 m/S 763 mmHg 78%
    12:00 +10°C° 0.8 mm 3 m/S 763 mmHg 83%
    13:00 +10°C° 0.8 mm 2 m/S 763 mmHg 89%
    14:00 +10°C° 0.4 mm 2 m/S 763 mmHg 88%
    15:00 +10°C° 0.4 mm 2 m/S 763 mmHg 86%
    16:00 +10°C° 0.4 mm 2 m/S 764 mmHg 85%
    17:00 +10°C° 0.1 mm 2 m/S 764 mmHg 83%
    18:00 +9°C° 0.1 mm 2 m/S 765 mmHg 80%
    19:00 +8°C° 0.1 mm 2 m/S 765 mmHg 77%
    20:00 +8°C° 0 mm 2 m/S 766 mmHg 79%
    21:00 +8°C° 0 mm 1 m/S 766 mmHg 81%
    22:00 +8°C° 0 mm 1 m/S 767 mmHg 83%
    23:00 +8°C° 0 mm 1 m/S 767 mmHg 84%

    27 Juli, Samstag

    Zeit Temperatur Niederschläge Wind Luftdruck Luftfeuchtigkeit
    00:00 +8°C° 0 mm 1 m/S 767 mmHg 85%
    01:00 +7°C° 0 mm 2 m/S 767 mmHg 85%
    02:00 +7°C° 0 mm 1 m/S 767 mmHg 86%
    03:00 +7°C° 0 mm 1 m/S 767 mmHg 86%
    04:00 +7°C° 0 mm 1 m/S 766 mmHg 87%
    05:00 +6°C° 0 mm 1 m/S 767 mmHg 86%
    06:00 +6°C° 0 mm 1 m/S 767 mmHg 86%
    07:00 +6°C° 0 mm 1 m/S 768 mmHg 86%
    08:00 +7°C° 0 mm 1 m/S 768 mmHg 82%
    09:00 +8°C° 0 mm 1 m/S 768 mmHg 78%
    10:00 +8°C° 0 mm 0 m/S 768 mmHg 74%
    11:00 +9°C° 0 mm 0 m/S 767 mmHg 68%
    12:00 +10°C° 0 mm 0 m/S 767 mmHg 63%
    13:00 +11°C° 0 mm 0 m/S 766 mmHg 57%
    14:00 +11°C° 0 mm 0 m/S 766 mmHg 56%
    15:00 +11°C° 0 mm 0 m/S 766 mmHg 56%
    16:00 +12°C° 0 mm 1 m/S 766 mmHg 55%
    17:00 +11°C° 0 mm 1 m/S 766 mmHg 59%
    18:00 +10°C° 0 mm 1 m/S 766 mmHg 64%
    19:00 +9°C° 0 mm 1 m/S 767 mmHg 68%
    20:00 +8°C° 0 mm 1 m/S 767 mmHg 70%
    21:00 +8°C° 0 mm 1 m/S 767 mmHg 72%
    22:00 +7°C° 0 mm 1 m/S 767 mmHg 74%
    23:00 +7°C° 0 mm 1 m/S 767 mmHg 74%

    28 Juli, Sonntag

    Zeit Temperatur Niederschläge Wind Luftdruck Luftfeuchtigkeit
    00:00 +6°C° 0 mm 2 m/S 767 mmHg 74%
    01:00 +6°C° 0 mm 2 m/S 766 mmHg 74%
    02:00 +5°C° 0 mm 2 m/S 766 mmHg 74%
    03:00 +5°C° 0 mm 2 m/S 766 mmHg 74%
    04:00 +5°C° 0 mm 2 m/S 766 mmHg 74%
    05:00 +5°C° 0 mm 2 m/S 766 mmHg 73%
    06:00 +5°C° 0 mm 2 m/S 767 mmHg 73%
    07:00 +6°C° 0 mm 1 m/S 767 mmHg 73%
    08:00 +7°C° 0 mm 1 m/S 767 mmHg 68%
    09:00 +8°C° 0 mm 1 m/S 767 mmHg 64%
    10:00 +9°C° 0 mm 1 m/S 767 mmHg 60%
    11:00 +10°C° 0 mm 1 m/S 767 mmHg 56%
    12:00 +11°C° 0 mm 1 m/S 766 mmHg 52%
    13:00 +13°C° 0 mm 1 m/S 766 mmHg 49%
    14:00 +13°C° 0 mm 1 m/S 766 mmHg 49%
    15:00 +13°C° 0 mm 1 m/S 766 mmHg 50%
    16:00 +12°C° 0 mm 0 m/S 766 mmHg 51%
    17:00 +11°C° 0 mm 1 m/S 766 mmHg 57%
    18:00 +10°C° 0 mm 1 m/S 766 mmHg 62%
    19:00 +9°C° 0 mm 1 m/S 767 mmHg 68%
    20:00 +8°C° 0 mm 1 m/S 767 mmHg 71%
    21:00 +6°C° 0 mm 2 m/S 767 mmHg 75%
    22:00 +6°C° 0 mm 2 m/S 767 mmHg 78%
    23:00 +6°C° 0 mm 2 m/S 766 mmHg 80%
    Mehr zeigen